Regional Weather Roundup
Issued by NWS Goodland, KS

Home | Current Version | Previous Version | Text Only | Print | Product List | Glossary Off
Versions: 1 2 3 4 5 6 7 8 9 10 11 12 13 14 15 16 17 18 19 20 21 22 23 24 25 26 27 28 29 30 31 32 33 34 35 36 37 38 39 40 41 42 43 44 45 46 47 48 49 50

000
ASUS43 KGLD 300708
RWRGLD

GOODLAND FORECAST AREA HOURLY WEATHER ROUNDUP
NATIONAL WEATHER SERVICE GOODLAND KS
100 AM MDT SAT APR 30 2016

...OFFICIAL OBSERVATIONS...

CITY           SKY/WX    TMP DP  RH WIND       PRES   REMARKS
GOODLAND KS    CLOUDY    32  31  96 NW14      29.82F FOG
HILL CITY KS   CLOUDY    42  40  92 N13       29.78F
IMPERIAL NEB   LGT SNOW  33  32  96 NW9       29.85F FOG
MCCOOK NEB     CLOUDY    38  36  92 NE10      29.81F FOG
AKRON CO       LGT SNOW  30  29  96 N14       29.86F FOG     WCI  19
BURLINGTON CO  CLOUDY    33  30  88 N13       29.83F FOG
LIMON CO       CLOUDY    29  28  96 NW12      29.85F WCI  19
$$

...UNOFFICIAL OBSERVATIONS...

CITY           SKY/WX    TMP DP  RH WIND       PRES   REMARKS
COLBY KS       DRIZZLE   34  34 100 NW12      29.82S
GOVE KS          N/A     40  32  73 MISG        N/A
LENORA KS        N/A     39  32  76 MISG        N/A
NORTON KS      LGT RAIN  39  36  87 N12       29.77F
SHARON SPRINGS   N/A     33  32  97 NW13G20     N/A
TRIBUNE KS     CLOUDY    36  34  93 NW13      29.84F
KIT CARSON CO    N/A     32  30  92 MISG        N/A
YUMA CO          N/A     32  31  96 CALM        N/A
$$



USA.gov is the U.S. government's official web portal to all federal, state and local government web resources and services.